Regional Weather Roundup
Issued by NWS

Home | Current Version | Previous Version | Graphics & Text | Print | Product List | Glossary On
Versions: 1 2 3 4 5 6 7 8 9 10 11 12 13 14 15 16 17 18 19 20 21 22 23 24 25 26 27 28 29 30 31 32 33 34 35 36 37 38 39 40 41 42 43 44 45 46 47 48 49 50
000
ASUS43 KDMX 170001
RWRIA

WEATHER ROUNDUP FOR IOWA
NATIONAL WEATHER SERVICE DES MOINES IA
700 PM CDT WED AUG 16 2017

NOTE: "FAIR" INDICATES FEW OR NO CLOUDS BELOW 12,000 FEET WITH NO
SIGNIFICANT WEATHER AND/OR OBSTRUCTIONS TO VISIBILITY.

* - THESE STATIONS ARE NOT NWS STATIONS...THUS NOT UNDER NWS
QUALITY CONTROL.  THEY ALSO DO NOT REPORT WEATHER SUCH
AS PRECIPITATION OR FOG.

IAZ001>003-012>014-020>022-031>034-043>046-170100-
   NORTHWEST IOWA

CITY           SKY/WX    TMP DP  RH WIND       PRES   REMARKS
CARROLL *      MOSUNNY   77  68  73 W10       29.72S
CHEROKEE *     CLOUDY    69  67  94 W15       29.72S
DENISON *      PTSUNNY   72  66  83 W15       29.77R
LE MARS *      CLOUDY    70  64  83 W9G20     29.74S
ORANGE CITY *  CLOUDY    70  68  94 W13G24    29.72S
SHELDON *      CLOUDY    68  66  94 W15G25    29.67S
SIOUX CITY     CLOUDY    71  67  87 NW9       29.76S
6HR MIN TEMP:  69; 6HR MAX TEMP:  78; 6HR PCP: TRACE;

SPENCER        PTSUNNY   71  67  87 SW20G28   29.67S
6HR MIN TEMP:  69; 6HR MAX TEMP:  76; 6HR PCP:  0.62;

STORM LAKE *   MOSUNNY   75  66  73 W15G25    29.73R
$$

IAZ055>058-069>071-079>083-090>094-170100-
   SOUTHWEST IOWA

CITY           SKY/WX    TMP DP  RH WIND       PRES   REMARKS
ATLANTIC *     MOSUNNY   79  66  65 SW14      29.75S HX  81
AUDUBON *      SUNNY     77  68  73 W8G17     29.76R
CLARINDA *     CLOUDY    81  68  65 W12       29.79S HX  83
COUNCIL BLFS * MOSUNNY   77  68  73 W13G20    29.78R
CRESTON *      CLOUDY    81  66  61 SW12G21   29.78S HX  83
HARLAN  *      PTSUNNY   75  68  78 W14       29.80R
LAMONI         MOSUNNY   80  68  66 SW9       29.76F HX  83
6HR MIN TEMP:  76; 6HR MAX TEMP:  85;

RED OAK *      CLOUDY    79  68  69 SW9       29.77S HX  81
SHENANDOAH *   MOSUNNY   79  68  69 W8        29.78R HX  81
$$

IAZ047>049-059>061-072>074-084-170100-
   CENTRAL IOWA

CITY           SKY/WX    TMP DP  RH WIND       PRES   REMARKS
AMES           SUNNY     79  72  79 SW9       29.70F HX  82
6HR MIN TEMP:  74; 6HR MAX TEMP:  83; 6HR PCP:  0.22;

ANKENY *       PTSUNNY   84  68  58 SW13      29.71F HX  87
BOONE *        MOSUNNY   81  68  65 SW13G21   29.70F HX  83
CHARITON *     SUNNY     82  68  61 SW9       29.74F HX  85
DES MOINES     MOSUNNY   85  68  56 SW16      29.71F HX  88
6HR MIN TEMP:  78; 6HR MAX TEMP:  86; 6HR PCP: TRACE;

GRINNELL*      PTSUNNY   82  71  68 S9        29.74F HX  86
KNOXVILLE *    SUNNY     82  68  61 SW7G14    29.72S HX  85
MARSHALLTOWN   PTSUNNY   81  72  74 S15       29.70F HX  85
6HR MIN TEMP:  71; 6HR MAX TEMP:  83; 6HR PCP:  0.17;

NEWTON *       MOSUNNY   81  70  69 SW9G20    29.72F HX  84
PELLA *        SUNNY     82  69  64 S7        29.73F HX  85
PERRY *          N/A     80  68  67 SW10      29.72S HX  82
$$

IAZ004>006-015-016-023>025-035-036-170100-
   NORTH CENTRAL IOWA

CITY           SKY/WX    TMP DP  RH WIND       PRES   REMARKS
ALGONA *       PTSUNNY   77  73  88 S8        29.67F
CLARION *      PTSUNNY   77  75  94 S10       29.69F
ESTHERVILLE    CLOUDY    75  70  84 S15G24    29.65F
6HR MIN TEMP:  69; 6HR MAX TEMP:  75; 6HR PCP:  0.17;

FORT DODGE *   MOSUNNY   79  66  65 SW12G23   29.70S HX  81
MASON CITY     PTSUNNY   75  71  87 S7        29.71F
6HR MIN TEMP:  72; 6HR MAX TEMP:  81; 6HR PCP:  0.47;

FOREST CITY *    N/A     75  72  88 S10       29.69F
WEBSTER CITY * MOSUNNY   79  72  78 SW9       29.68S HX  82
IOWA FALLS *     N/A     80  72  77 S12       29.72F HX  84
$$

IAZ007>011-017>019-026>030-037>042-050>054-066-170100-
   NORTHEAST IOWA

CITY           SKY/WX    TMP DP  RH WIND       PRES   REMARKS
CEDAR RAPIDS   MOSUNNY   81  72  74 S8        29.74F HX  85
6HR MIN TEMP:  79; 6HR MAX TEMP:  83; 6HR PCP: TRACE;

CHARLES CITY * RAIN      75  75 100 SW6       29.72F
CLINTON *      CLOUDY    81  73  76 S10       29.80S HX  86
DECORAH *      CLOUDY    73  72  94 SE10G20   29.74S
DUBUQUE        CLOUDY    76  73  91 SE9       29.79F
6HR MIN TEMP:  74; 6HR MAX TEMP:  82; 6HR PCP:  0.66;

MONTICELLO *   CLOUDY    81  73  78 SE7G13    29.76S HX  85
OELWEIN *      PTSUNNY   77  75  94 S8G15     29.74S
WATERLOO       PTSUNNY   81  70  69 S14       29.70F HX  84
6HR MIN TEMP:  77; 6HR MAX TEMP:  84; 6HR PCP:  0.03;

$$

IAZ064-065-067-068-078-170100-
   EAST CENTRAL IOWA

CITY           SKY/WX    TMP DP  RH WIND       PRES   REMARKS
DAVENPORT      CLOUDY    81  71  71 S15G25    29.81R HX  85
6HR MIN TEMP:  79; 6HR MAX TEMP:  83; 6HR PCP: TRACE;

IOWA CITY      CLOUDY    83  72  69 S14       29.76F HX  88
6HR MIN TEMP:  80; 6HR MAX TEMP:  86; 6HR PCP: TRACE;

MUSCATINE *    PTSUNNY   82  72  69 S13G20    29.78R HX  87
QUAD CITIES    CLOUDY    80  73  79 S9        29.79S HX  84
6HR MIN TEMP:  80; 6HR MAX TEMP:  85; 6HR PCP:  0.02;

$$

IAZ062-063-075>077-085>089-095>099-170100-
   SOUTHEAST IOWA

CITY           SKY/WX    TMP DP  RH WIND       PRES   REMARKS
BURLINGTON     CLOUDY    80  75  84 S9        29.80F HX  85
6HR MIN TEMP:  78; 6HR MAX TEMP:  84; 6HR PCP: TRACE;

FAIRFIELD *    MOSUNNY   84  70  61 S12G18    29.76R HX  88
FORT MADISON * CLOUDY    81  75  83 S9        29.81S HX  86
KEOKUK *       CLOUDY    81  73  78 S12       29.80R HX  85
OSKALOOSA *      N/A     82  70  68 SW7       29.74S HX  85
OTTUMWA        SUNNY     84  70  62 S12       29.74F HX  88
6HR MIN TEMP:  78; 6HR MAX TEMP:  87; 6HR PCP: TRACE;

WASHINGTON *   CLOUDY    82  73  74 S12G18    29.77S HX  88
$$

ABBREVIATIONS USED IN REMARKS
   TC - TEMPERATURES IN CELSIUS
  WCI - WIND CHILL INDEX
   HX - HEAT INDEX
  VSB - VISIBILITY
$$





USA.gov is the U.S. government's official web portal to all federal, state and local government web resources and services.